Houston, TX

8:10 PM CST on February 09, 2016 (GMT -0600)
Ellington

Weather History for KEFD - July, 2013

Change the Weather History Date:

Wednesday, July 17, 2013

  Actual Average Record
Temperature  
Mean Temperature 78 °F -  
Max Temperature 84 °F 91 °F 100 °F (1998)
Min Temperature 73 °F 73 °F 73 °F (2007)
Cooling Degree Days 14    
Growing Degree Days 28 (Base 50)    
Moisture  
Dew Point 75 °F    
Average Humidity 90    
Maximum Humidity 100    
Minimum Humidity 79    
Precipitation  
Precipitation 0.00 in - - ()
Sea Level Pressure  
Sea Level Pressure 30.14 in    
Wind  
Wind Speed 4 mph (ENE)    
Max Wind Speed 12 mph    
Max Gust Speed -    
Visibility 10 miles    
Events Rain    
Averages and records for this station are not official NWS values.
T = Trace of Precipitation, MM = Missing Value Source: NWS Daily Summary

Daily Weather History Graph

Daily Weather History Graph

Search for Another Location

Airport or City:

Trip Planner

Search our weather history database for the weather conditions in past years. The results will help you decide how hot, cold, wet, or windy it might be!

Date:

Astronomy

Jul. 17, 2013 Rise Set
Actual Time 6:31 AM CDT 8:21 PM CDT
Civil Twilight 6:05 AM CDT 8:48 PM CDT
Nautical Twilight 5:33 AM CDT 9:20 PM CDT
Astronomical Twilight 4:59 AM CDT 9:54 PM CDT
Moon 3:17 PM CDT (7/17) 1:31 AM CDT (7/17)
Length of Visible Light 14h 42m
Length of Day
13h 49m
Waxing Gibbous, 67% of the Moon is Illuminated
Jul 17
Waxing Gibbous
Jul 22
Full
Jul 29
Last Quarter
Aug 6
New
Aug 14
First Quarter

Hourly Weather History & Observations

Time (CDT) Temp. Heat Index Dew Point Humidity Pressure Visibility Wind Dir Wind Speed Gust Speed Precip Events Conditions
12:50 AM 75.2 °F - 73.4 °F 94% 30.13 in 10.0 mi ENE 5.8 mph - N/A   Overcast
1:50 AM 75.2 °F - 71.6 °F 89% 30.12 in 10.0 mi NE 4.6 mph - N/A   Overcast
2:50 AM 75.2 °F - 71.6 °F 89% 30.12 in 10.0 mi NE 3.5 mph - N/A   Overcast
3:50 AM 75.2 °F - 71.6 °F 89% 30.12 in 10.0 mi Calm Calm - N/A   Overcast
4:50 AM 75.2 °F - 71.6 °F 89% 30.12 in 10.0 mi Calm Calm - N/A   Overcast
5:50 AM 77.0 °F - 71.6 °F 83% 30.12 in 10.0 mi Calm Calm - N/A   Overcast
6:50 AM 75.2 °F - 71.6 °F 89% 30.12 in 10.0 mi Calm Calm - N/A   Mostly Cloudy
7:50 AM 77.0 °F - 75.2 °F 94% 30.15 in 10.0 mi NE 4.6 mph - N/A   Overcast
8:24 AM 77.0 °F - 75.2 °F 94% 30.16 in 8.0 mi NE 4.6 mph - N/A   Mostly Cloudy
8:50 AM 77.0 °F - 73.4 °F 89% 30.18 in 6.0 mi ENE 11.5 mph - N/A Rain Light Rain
11:50 AM 73.4 °F - 73.4 °F 100% 30.18 in 10.0 mi ENE 4.6 mph - N/A   Overcast
12:50 PM 77.0 °F - 77.0 °F 100% 30.18 in 10.0 mi NE 5.8 mph - N/A   Overcast
1:50 PM 78.8 °F - 77.0 °F 94% 30.18 in 8.0 mi East 5.8 mph - N/A   Mostly Cloudy
2:50 PM 80.6 °F 88.1 °F 78.8 °F 94% 30.17 in 8.0 mi East 4.6 mph - N/A   Mostly Cloudy
3:50 PM 84.2 °F 98.3 °F 80.6 °F 89% 30.14 in 10.0 mi East 8.1 mph - N/A   Mostly Cloudy
4:50 PM 84.2 °F 94.1 °F 77.0 °F 79% 30.12 in 10.0 mi East 8.1 mph - N/A   Mostly Cloudy
5:50 PM 84.2 °F 94.1 °F 77.0 °F 79% 30.12 in 10.0 mi ESE 4.6 mph - N/A   Mostly Cloudy
7:50 PM 82.4 °F 90.9 °F 77.0 °F 84% 30.12 in 10.0 mi East 4.6 mph - N/A   Mostly Cloudy
8:50 PM 80.6 °F 86.2 °F 75.2 °F 84% 30.13 in 10.0 mi Calm Calm - N/A   Mostly Cloudy
9:50 PM 78.8 °F - 75.2 °F 89% 30.14 in 10.0 mi Calm Calm - N/A   Mostly Cloudy
10:50 PM 78.8 °F - 77.0 °F 94% 30.15 in 10.0 mi NNE 3.5 mph - N/A   Mostly Cloudy
11:50 PM 78.8 °F - 77.0 °F 94% 30.14 in 10.0 mi Calm Calm - N/A   Scattered Clouds